| time (UTC) | temp C | wind direction | speed KPH | gust KPH | rain 1hr cm | rain 24hr cm | rain mn cm | humidity % | barometer mb |
| 20260509123829 | 8 | 234 | 16.1 | 32.2 | 0.00 | 0.00 | 0.00 | 74 | 1001.8 |
| 20260509123342 | 8 | 213 | 9.7 | 32.2 | 0.00 | 0.00 | 0.00 | 74 | 1001.7 |
| 20260509122830 | 9 | 253 | 14.5 | 29.0 | 0.00 | 0.00 | 0.00 | 74 | 1001.6 |
| 20260509122326 | 8 | 234 | 14.5 | 29.0 | 0.00 | 0.00 | 0.00 | 74 | 1001.6 |
| 20260509121823 | 8 | 261 | 16.1 | 29.0 | 0.00 | 0.00 | 0.00 | 74 | 1001.6 |
| 20260509121339 | 8 | 240 | 11.3 | 27.4 | 0.00 | 0.00 | 0.00 | 75 | 1001.7 |
| 20260509120831 | 8 | 242 | 14.5 | 32.2 | 0.00 | 0.00 | 0.00 | 74 | 1001.8 |
| 20260509120327 | 8 | 198 | 12.9 | 32.2 | 0.00 | 0.00 | 0.00 | 74 | 1001.6 |
| 20260509115819 | 8 | 246 | 16.1 | 29.0 | 0.00 | 0.00 | 0.00 | 74 | 1001.6 |
| 20260509115336 | 8 | 210 | 16.1 | 24.1 | 0.00 | 0.00 | 0.00 | 74 | 1001.6 |
| 20260509114829 | 8 | 210 | 16.1 | 24.1 | 0.00 | 0.00 | 0.00 | 74 | 1001.8 |
| 20260509114324 | 8 | 240 | 14.5 | 27.4 | 0.00 | 0.00 | 0.00 | 74 | 1001.6 |
| 20260509113832 | 8 | 243 | 16.1 | 24.1 | 0.00 | 0.00 | 0.00 | 73 | 1001.7 |
| 20260509113339 | 8 | 209 | 12.9 | 20.9 | 0.00 | 0.00 | 0.00 | 73 | 1001.6 |
| 20260509112824 | 8 | 234 | 14.5 | 27.4 | 0.00 | 0.00 | 0.00 | 73 | 1001.6 |
| 20260509112318 | 9 | 223 | 16.1 | 25.7 | 0.00 | 0.00 | 0.00 | 73 | 1001.7 |
| 20260509111854 | 9 | 231 | 12.9 | 25.7 | 0.00 | 0.00 | 0.00 | 73 | 1001.5 |
| 20260509111340 | 9 | 260 | 11.3 | 27.4 | 0.00 | 0.00 | 0.00 | 73 | 1001.5 |
| 20260509110835 | 9 | 244 | 8.0 | 27.4 | 0.00 | 0.00 | 0.00 | 73 | 1001.6 |
| 20260509110324 | 9 | 227 | 9.7 | 29.0 | 0.00 | 0.00 | 0.00 | 72 | 1001.5 |
| 20260509105838 | 9 | 243 | 9.7 | 29.0 | 0.00 | 0.00 | 0.00 | 72 | 1001.4 |
| 20260509105329 | 9 | 198 | 9.7 | 22.5 | 0.00 | 0.00 | 0.00 | 73 | 1001.5 |
| 20260509104845 | 9 | 257 | 6.4 | 17.7 | 0.00 | 0.00 | 0.00 | 72 | 1001.5 |
| 20260509104322 | 9 | 229 | 8.0 | 22.5 | 0.00 | 0.00 | 0.00 | 72 | 1001.5 |
| 20260509103816 | 9 | 153 | 9.7 | 22.5 | 0.00 | 0.00 | 0.00 | 72 | 1001.4 |
| 20260509103332 | 9 | 188 | 8.0 | 12.9 | 0.00 | 0.00 | 0.00 | 72 | 1001.5 |
| 20260509102828 | 9 | 171 | 6.4 | 22.5 | 0.00 | 0.00 | 0.00 | 72 | 1001.5 |
| 20260509102337 | 9 | 157 | 8.0 | 22.5 | 0.00 | 0.00 | 0.00 | 72 | 1001.5 |
| 20260509101847 | 9 | 182 | 6.4 | 19.3 | 0.00 | 0.00 | 0.00 | 72 | 1001.4 |
| 20260509101318 | 9 | 165 | 8.0 | 19.3 | 0.00 | 0.00 | 0.00 | 71 | 1001.4 |
| 20260509100854 | 10 | 240 | 9.7 | 22.5 | 0.00 | 0.00 | 0.00 | 71 | 1001.6 |
| 20260509100318 | 10 | 244 | 9.7 | 17.7 | 0.00 | 0.00 | 0.00 | 72 | 1001.5 |
| 20260509095833 | 10 | 190 | 6.4 | 22.5 | 0.00 | 0.00 | 0.00 | 72 | 1001.6 |
| 20260509095322 | 10 | 276 | 6.4 | 22.5 | 0.00 | 0.00 | 0.00 | 71 | 1001.5 |
| 20260509094836 | 10 | 310 | 8.0 | 17.7 | 0.00 | 0.00 | 0.00 | 71 | 1001.6 |
| 20260509094349 | 10 | 205 | 6.4 | 19.3 | 0.00 | 0.00 | 0.00 | 71 | 1001.6 |
| 20260509093819 | 10 | 183 | 8.0 | 19.3 | 0.00 | 0.00 | 0.00 | 72 | 1001.7 |
| 20260509093335 | 10 | 176 | 4.8 | 16.1 | 0.00 | 0.00 | 0.00 | 71 | 1001.7 |
| 20260509092842 | 10 | 211 | 4.8 | 17.7 | 0.00 | 0.00 | 0.00 | 71 | 1001.7 |
| 20260509092327 | 10 | 247 | 6.4 | 17.7 | 0.00 | 0.00 | 0.00 | 70 | 1001.8 |
| 20260509091817 | 10 | 307 | 6.4 | 22.5 | 0.00 | 0.00 | 0.00 | 70 | 1001.9 |
| 20260509091334 | 10 | 184 | 6.4 | 22.5 | 0.00 | 0.00 | 0.00 | 70 | 1001.9 |
| 20260509090825 | 10 | 269 | 8.0 | 19.3 | 0.00 | 0.00 | 0.00 | 72 | 1002.0 |
| 20260509090338 | 10 | 236 | 8.0 | 19.3 | 0.00 | 0.00 | 0.00 | 71 | 1001.9 |
| 20260509085834 | 10 | 212 | 6.4 | 20.9 | 0.00 | 0.00 | 0.00 | 70 | 1001.9 |
| 20260509085349 | 10 | 212 | 6.4 | 17.7 | 0.00 | 0.00 | 0.00 | 70 | 1002.0 |
| 20260509084814 | 10 | 214 | 9.7 | 17.7 | 0.00 | 0.00 | 0.00 | 70 | 1002.1 |
| 20260509084329 | 10 | 165 | 6.4 | 20.9 | 0.00 | 0.00 | 0.00 | 71 | 1002.1 |
| 20260509083844 | 10 | 192 | 4.8 | 12.9 | 0.00 | 0.00 | 0.00 | 70 | 1002.1 |
| 20260509083329 | 10 | 165 | 4.8 | 14.5 | 0.00 | 0.00 | 0.00 | 70 | 1002.3 |
| 20260509082825 | 10 | 233 | 4.8 | 17.7 | 0.00 | 0.00 | 0.00 | 69 | 1002.4 |
| 20260509082352 | 10 | 165 | 4.8 | 17.7 | 0.00 | 0.00 | 0.00 | 70 | 1002.5 |
| 20260509081859 | 10 | 160 | 4.8 | 14.5 | 0.00 | 0.00 | 0.00 | 70 | 1002.6 |
| 20260509081329 | 10 | 197 | 4.8 | 14.5 | 0.00 | 0.00 | 0.00 | 69 | 1002.7 |
| 20260509080818 | 10 | 194 | 4.8 | 16.1 | 0.00 | 0.00 | 0.00 | 69 | 1002.8 |
| 20260509080333 | 10 | 145 | 4.8 | 12.9 | 0.00 | 0.00 | 0.00 | 68 | 1002.9 |
| 20260509075825 | 10 | 163 | 4.8 | 14.5 | 0.00 | 0.00 | 0.00 | 68 | 1002.9 |
| 20260509075322 | 10 | 142 | 4.8 | 14.5 | 0.00 | 0.00 | 0.00 | 68 | 1003.1 |
| 20260509074815 | 10 | 223 | 6.4 | 14.5 | 0.00 | 0.00 | 0.00 | 68 | 1003.2 |
| 20260509074351 | 10 | 192 | 6.4 | 12.9 | 0.00 | 0.00 | 0.00 | 67 | 1003.1 |
| 20260509073902 | 10 | 180 | 6.4 | 16.1 | 0.00 | 0.00 | 0.00 | 68 | 1003.1 |
| 20260509073327 | 10 | 292 | 6.4 | 16.1 | 0.00 | 0.00 | 0.00 | 68 | 1003.3 |
| 20260509072825 | 10 | 155 | 6.4 | 16.1 | 0.00 | 0.00 | 0.00 | 68 | 1003.3 |
| 20260509072334 | 10 | 234 | 6.4 | 19.3 | 0.00 | 0.00 | 0.00 | 68 | 1003.3 |
| 20260509071827 | 10 | 213 | 6.4 | 19.3 | 0.00 | 0.00 | 0.00 | 67 | 1003.4 |
| 20260509071340 | 10 | 225 | 6.4 | 22.5 | 0.00 | 0.00 | 0.00 | 67 | 1003.5 |
| 20260509070849 | 10 | 184 | 6.4 | 22.5 | 0.00 | 0.00 | 0.00 | 67 | 1003.6 |
| 20260509070343 | 10 | 270 | 8.0 | 16.1 | 0.00 | 0.00 | 0.00 | 67 | 1003.8 |
| 20260509065828 | 10 | 163 | 4.8 | 17.7 | 0.00 | 0.00 | 0.00 | 67 | 1003.9 |
| 20260509065325 | 10 | 217 | 6.4 | 19.3 | 0.00 | 0.00 | 0.00 | 67 | 1003.9 |
| 20260509064820 | 11 | 221 | 8.0 | 19.3 | 0.00 | 0.00 | 0.00 | 66 | 1004.0 |
| 20260509064336 | 11 | 213 | 6.4 | 19.3 | 0.00 | 0.00 | 0.00 | 66 | 1004.1 |
| 20260509063828 | 11 | 226 | 6.4 | 16.1 | 0.00 | 0.00 | 0.00 | 65 | 1004.0 |
| 20260509063350 | 11 | 223 | 6.4 | 17.7 | 0.00 | 0.00 | 0.00 | 65 | 1004.0 |
| 20260509062820 | 11 | 166 | 4.8 | 14.5 | 0.00 | 0.00 | 0.00 | 64 | 1004.0 |
| 20260509062336 | 11 | 185 | 3.2 | 14.5 | 0.00 | 0.00 | 0.00 | 63 | 1004.1 |
| 20260509061851 | 11 | 151 | 3.2 | 16.1 | 0.00 | 0.00 | 0.00 | 62 | 1004.2 |
| 20260509061325 | 11 | 189 | 4.8 | 16.1 | 0.00 | 0.00 | 0.00 | 62 | 1004.2 |
| 20260509060827 | 11 | 138 | 4.8 | 14.5 | 0.00 | 0.00 | 0.00 | 61 | 1004.3 |
| 20260509060321 | 11 | 150 | 3.2 | 14.5 | 0.00 | 0.00 | 0.00 | 60 | 1004.3 |
| 20260509055849 | 11 | 303 | 3.2 | 14.5 | 0.00 | 0.00 | 0.00 | 60 | 1004.4 |
| 20260509055320 | 12 | 190 | 4.8 | 14.5 | 0.00 | 0.00 | 0.00 | 59 | 1004.5 |
| 20260509054842 | 12 | 155 | 3.2 | 8.0 | 0.00 | 0.00 | 0.00 | 59 | 1004.4 |
| 20260509054347 | 12 | 149 | 1.6 | 8.0 | 0.00 | 0.00 | 0.00 | 58 | 1004.4 |
| 20260509053815 | 12 | 166 | 3.2 | 9.7 | 0.00 | 0.00 | 0.00 | 57 | 1004.6 |
| 20260509053328 | 12 | 141 | 3.2 | 9.7 | 0.00 | 0.00 | 0.00 | 56 | 1004.7 |
| 20260509052842 | 12 | 84 | 3.2 | 8.0 | 0.00 | 0.00 | 0.00 | 56 | 1004.7 |
| 20260509052325 | 12 | 172 | 3.2 | 8.0 | 0.00 | 0.00 | 0.00 | 56 | 1004.6 |
| 20260509051835 | 12 | 142 | 3.2 | 9.7 | 0.00 | 0.00 | 0.00 | 56 | 1004.7 |
| 20260509051343 | 12 | 168 | 3.2 | 9.7 | 0.00 | 0.00 | 0.00 | 55 | 1004.6 |
| 20260509050838 | 12 | 144 | 3.2 | 8.0 | 0.00 | 0.00 | 0.00 | 55 | 1004.7 |
| 20260509050327 | 13 | 184 | 3.2 | 11.3 | 0.00 | 0.00 | 0.00 | 55 | 1004.7 |
| 20260509045835 | 13 | 153 | 3.2 | 11.3 | 0.00 | 0.00 | 0.00 | 55 | 1004.7 |
| 20260509045343 | 13 | 42 | 3.2 | 11.3 | 0.00 | 0.00 | 0.00 | 54 | 1004.8 |
| 20260509044828 | 13 | 144 | 4.8 | 11.3 | 0.00 | 0.00 | 0.00 | 53 | 1004.7 |
| 20260509044325 | 13 | 186 | 3.2 | 11.3 | 0.00 | 0.00 | 0.00 | 53 | 1004.8 |
| 20260509043819 | 13 | 133 | 3.2 | 9.7 | 0.00 | 0.00 | 0.00 | 52 | 1004.8 |
| 20260509043348 | 13 | 184 | 3.2 | 8.0 | 0.00 | 0.00 | 0.00 | 52 | 1004.8 |
| 20260509042836 | 13 | 135 | 3.2 | 6.4 | 0.00 | 0.00 | 0.00 | 52 | 1004.8 |
| 20260509042328 | 13 | 69 | 3.2 | 17.7 | 0.00 | 0.00 | 0.00 | 52 | 1004.7 |
| 20260509041833 | 13 | 135 | 4.8 | 19.3 | 0.00 | 0.00 | 0.00 | 52 | 1004.9 |
| 20260509041347 | 13 | 191 | 3.2 | 12.9 | 0.00 | 0.00 | 0.00 | 51 | 1004.9 |
| 20260509040856 | 13 | 119 | 3.2 | 12.9 | 0.00 | 0.00 | 0.00 | 50 | 1004.9 |
| 20260509040340 | 13 | 157 | 3.2 | 8.0 | 0.00 | 0.00 | 0.00 | 50 | 1005.1 |
| 20260509035842 | 13 | 329 | 3.2 | 8.0 | 0.00 | 0.00 | 0.00 | 49 | 1005.2 |
| 20260509035337 | 13 | 151 | 3.2 | 8.0 | 0.00 | 0.00 | 0.00 | 48 | 1005.2 |
| 20260509034825 | 13 | 155 | 3.2 | 12.9 | 0.00 | 0.00 | 0.00 | 46 | 1005.2 |
| 20260509034318 | 13 | 225 | 4.8 | 12.9 | 0.00 | 0.00 | 0.00 | 45 | 1005.2 |
| 20260509033834 | 13 | 138 | 3.2 | 6.4 | 0.00 | 0.00 | 0.00 | 45 | 1005.4 |
| 20260509033326 | 13 | 123 | 3.2 | 6.4 | 0.00 | 0.00 | 0.00 | 44 | 1005.4 |
| 20260509032838 | 13 | 155 | 1.6 | 8.0 | 0.00 | 0.00 | 0.00 | 44 | 1005.6 |
| 20260509032352 | 13 | 172 | 3.2 | 8.0 | 0.00 | 0.00 | 0.00 | 45 | 1005.6 |
| 20260509031827 | 13 | 310 | 3.2 | 9.7 | 0.00 | 0.00 | 0.00 | 44 | 1005.7 |
| 20260509031323 | 12 | 169 | 1.6 | 6.4 | 0.00 | 0.00 | 0.00 | 41 | 1005.6 |
| 20260509030817 | 12 | 164 | 3.2 | 6.4 | 0.00 | 0.00 | 0.00 | 41 | 1005.8 |
| 20260509030348 | 12 | 351 | 3.2 | 12.9 | 0.00 | 0.00 | 0.00 | 41 | 1005.8 |
| 20260509025822 | 12 | 169 | 4.8 | 12.9 | 0.00 | 0.00 | 0.00 | 39 | 1006.0 |
| 20260509025318 | 12 | 5 | 3.2 | 8.0 | 0.00 | 0.00 | 0.00 | 39 | 1005.9 |
| 20260509024853 | 12 | 142 | 3.2 | 14.5 | 0.00 | 0.00 | 0.00 | 38 | 1006.1 |
| 20260509024329 | 12 | 156 | 3.2 | 14.5 | 0.00 | 0.00 | 0.00 | 37 | 1005.9 |
| 20260509023824 | 12 | 134 | 3.2 | 6.4 | 0.00 | 0.00 | 0.00 | 38 | 1006.1 |
| 20260509023321 | 12 | 263 | 1.6 | 4.8 | 0.00 | 0.00 | 0.00 | 37 | 1006.1 |
| 20260509022836 | 12 | 144 | 1.6 | 6.4 | 0.00 | 0.00 | 0.00 | 37 | 1006.1 |
| 20260509022330 | 12 | 139 | 1.6 | 8.0 | 0.00 | 0.00 | 0.00 | 38 | 1006.2 |
| 20260509021826 | 12 | 136 | 3.2 | 8.0 | 0.00 | 0.00 | 0.00 | 37 | 1006.2 |
| 20260509021331 | 12 | 157 | 3.2 | 6.4 | 0.00 | 0.00 | 0.00 | 37 | 1006.1 |
| 20260509020821 | 12 | 129 | 1.6 | 8.0 | 0.00 | 0.00 | 0.00 | 34 | 1006.1 |
| 20260509020354 | 12 | 36 | 3.2 | 8.0 | 0.00 | 0.00 | 0.00 | 34 | 1006.2 |
| 20260509015824 | 12 | 86 | 3.2 | 9.7 | 0.00 | 0.00 | 0.00 | 33 | 1006.1 |
| 20260509015350 | 12 | 178 | 3.2 | 9.7 | 0.00 | 0.00 | 0.00 | 30 | 1006.2 |
| 20260509014904 | 12 | 137 | 1.6 | 8.0 | 0.00 | 0.00 | 0.00 | 30 | 1006.3 |
| 20260509014329 | 12 | 141 | 3.2 | 8.0 | 0.00 | 0.00 | 0.00 | 27 | 1006.2 |
| 20260509013855 | 12 | 151 | 1.6 | 6.4 | 0.00 | 0.00 | 0.00 | 26 | 1006.2 |
| 20260509013319 | 12 | 157 | 1.6 | 8.0 | 0.00 | 0.00 | 0.00 | 27 | 1006.2 |
| 20260509012833 | 12 | 20 | 3.2 | 8.0 | 0.00 | 0.00 | 0.00 | 26 | 1006.2 |
| 20260509012350 | 13 | 70 | 1.6 | 4.8 | 0.00 | 0.00 | 0.00 | 26 | 1006.2 |
| 20260509011825 | 13 | 22 | 1.6 | 4.8 | 0.00 | 0.00 | 0.00 | 25 | 1006.1 |
| 20260509011323 | 13 | 45 | 1.6 | 4.8 | 0.00 | 0.00 | 0.00 | 25 | 1006.0 |
| 20260509010818 | 13 | 60 | 1.6 | 4.8 | 0.00 | 0.00 | 0.00 | 25 | 1006.0 |
| 20260509010333 | 13 | 44 | 3.2 | 4.8 | 0.00 | 0.00 | 0.00 | 25 | 1006.0 |
| 20260509005825 | 13 | 67 | 3.2 | 6.4 | 0.00 | 0.00 | 0.00 | 25 | 1006.1 |
| 20260509005322 | 13 | 92 | 3.2 | 6.4 | 0.00 | 0.00 | 0.00 | 25 | 1006.1 |
| 20260509004856 | 13 | 74 | 1.6 | 6.4 | 0.00 | 0.00 | 0.00 | 26 | 1006.0 |
| 20260509004329 | 13 | 5 | 1.6 | 6.4 | 0.00 | 0.00 | 0.00 | 25 | 1006.0 |
| 20260509003837 | 13 | 257 | 3.2 | 6.4 | 0.00 | 0.00 | 0.00 | 24 | 1006.1 |
| 20260509003332 | 14 | 37 | 1.6 | 4.8 | 0.00 | 0.00 | 0.00 | 24 | 1006.2 |
| 20260509002829 | 14 | 73 | 1.6 | 6.4 | 0.00 | 0.00 | 0.00 | 25 | 1006.2 |
| 20260509002344 | 14 | 61 | 1.6 | 6.4 | 0.00 | 0.00 | 0.00 | 26 | 1006.3 |
| 20260509001830 | 14 | 65 | 1.6 | 8.0 | 0.00 | 0.00 | 0.00 | 27 | 1006.4 |
| 20260509001326 | 14 | 76 | 1.6 | 8.0 | 0.00 | 0.00 | 0.00 | 26 | 1006.4 |
| 20260509000820 | 14 | 120 | 1.6 | 8.0 | 0.00 | 0.00 | 0.00 | 26 | 1006.5 |
| 20260509000318 | 15 | 73 | 1.6 | 8.0 | 0.00 | 0.00 | 0.00 | 27 | 1006.5 |
| 20260508235832 | 15 | 134 | 3.2 | 8.0 | 0.00 | 0.00 | 0.00 | 25 | 1006.6 |
| 20260508235353 | 15 | 71 | 1.6 | 8.0 | 0.00 | 0.00 | 0.00 | 29 | 1006.6 |
| 20260508234820 | 15 | 247 | 3.2 | 11.3 | 0.00 | 0.00 | 0.00 | 26 | 1006.7 |
| 20260508234336 | 15 | 221 | 3.2 | 11.3 | 0.00 | 0.00 | 0.00 | 25 | 1006.7 |
| 20260508233849 | 14 | 200 | 1.6 | 6.4 | 0.00 | 0.00 | 0.00 | 28 | 1006.8 |
| 20260508233322 | 14 | 173 | 1.6 | 6.4 | 0.00 | 0.00 | 0.00 | 28 | 1006.8 |
| 20260508232838 | 14 | 163 | 1.6 | 9.7 | 0.00 | 0.00 | 0.00 | 27 | 1006.8 |
| 20260508232333 | 13 | 156 | 3.2 | 11.3 | 0.00 | 0.00 | 0.00 | 28 | 1007.0 |
| 20260508231826 | 13 | 167 | 3.2 | 11.3 | 0.00 | 0.00 | 0.00 | 30 | 1007.0 |
| 20260508231333 | 13 | 229 | 3.2 | 14.5 | 0.00 | 0.00 | 0.00 | 29 | 1007.0 |
| 20260508230826 | 13 | 234 | 3.2 | 14.5 | 0.00 | 0.00 | 0.00 | 30 | 1007.0 |
| 20260508230320 | 13 | 157 | 3.2 | 11.3 | 0.00 | 0.00 | 0.00 | 33 | 1007.1 |
| 20260508225833 | 13 | 138 | 3.2 | 6.4 | 0.00 | 0.00 | 0.00 | 35 | 1007.1 |
| 20260508225325 | 13 | 198 | 3.2 | 9.7 | 0.00 | 0.00 | 0.00 | 37 | 1007.2 |
| 20260508224819 | 13 | 190 | 3.2 | 12.9 | 0.00 | 0.00 | 0.00 | 40 | 1007.2 |
| 20260508224337 | 13 | 154 | 1.6 | 16.1 | 0.00 | 0.00 | 0.00 | 41 | 1007.3 |
| 20260508223828 | 13 | 191 | 8.0 | 16.1 | 0.00 | 0.00 | 0.00 | 44 | 1007.4 |
| 20260508223325 | 13 | 165 | 4.8 | 8.0 | 0.00 | 0.00 | 0.00 | 41 | 1007.6 |
| 20260508222830 | 13 | 202 | 3.2 | 8.0 | 0.00 | 0.00 | 0.00 | 43 | 1007.7 |
| 20260508222340 | 13 | 192 | 3.2 | 9.7 | 0.00 | 0.00 | 0.00 | 44 | 1007.7 |
| 20260508221849 | 13 | 105 | 3.2 | 9.7 | 0.00 | 0.00 | 0.00 | 46 | 1007.7 |
| 20260508221335 | 13 | 204 | 4.8 | 9.7 | 0.00 | 0.00 | 0.00 | 46 | 1007.8 |
| 20260508220828 | 13 | 198 | 3.2 | 9.7 | 0.00 | 0.00 | 0.00 | 46 | 1007.8 |
| 20260508220333 | 13 | 152 | 3.2 | 9.7 | 0.00 | 0.00 | 0.00 | 47 | 1007.8 |
| 20260508215850 | 13 | 200 | 4.8 | 12.9 | 0.00 | 0.00 | 0.00 | 47 | 1007.9 |
| 20260508215324 | 13 | 192 | 3.2 | 12.9 | 0.00 | 0.00 | 0.00 | 49 | 1007.9 |
| 20260508214821 | 13 | 211 | 4.8 | 11.3 | 0.00 | 0.00 | 0.00 | 46 | 1007.9 |
| 20260508214352 | 13 | 204 | 3.2 | 11.3 | 0.00 | 0.00 | 0.00 | 47 | 1007.9 |
| 20260508213838 | 13 | 225 | 4.8 | 11.3 | 0.00 | 0.00 | 0.00 | 46 | 1007.9 |
| 20260508213326 | 13 | 174 | 3.2 | 9.7 | 0.00 | 0.00 | 0.00 | 47 | 1007.9 |
| 20260508212840 | 13 | 159 | 4.8 | 12.9 | 0.00 | 0.00 | 0.00 | 47 | 1008.0 |
| 20260508212323 | 13 | 200 | 6.4 | 12.9 | 0.00 | 0.00 | 0.00 | 50 | 1008.1 |
| 20260508211816 | 12 | 142 | 4.8 | 14.5 | 0.00 | 0.00 | 0.00 | 53 | 1008.2 |
| 20260508211334 | 12 | 185 | 6.4 | 14.5 | 0.00 | 0.00 | 0.00 | 53 | 1008.2 |
| 20260508210828 | 12 | 222 | 3.2 | 12.9 | 0.00 | 0.00 | 0.00 | 55 | 1008.2 |
| 20260508210323 | 12 | 227 | 3.2 | 14.5 | 0.00 | 0.00 | 0.00 | 57 | 1008.3 |
| 20260508205816 | 12 | 194 | 4.8 | 14.5 | 0.00 | 0.00 | 0.00 | 56 | 1008.3 |
| 20260508205334 | 12 | 217 | 4.8 | 11.3 | 0.00 | 0.00 | 0.00 | 56 | 1008.4 |
| 20260508204827 | 12 | 202 | 4.8 | 11.3 | 0.00 | 0.00 | 0.00 | 56 | 1008.6 |
| 20260508204341 | 12 | 163 | 4.8 | 11.3 | 0.00 | 0.00 | 0.00 | 56 | 1008.7 |
| 20260508203832 | 12 | 193 | 3.2 | 12.9 | 0.00 | 0.00 | 0.00 | 57 | 1008.7 |
| 20260508203327 | 12 | 211 | 6.4 | 12.9 | 0.00 | 0.00 | 0.00 | 57 | 1008.7 |
| 20260508202818 | 12 | 201 | 3.2 | 11.3 | 0.00 | 0.00 | 0.00 | 58 | 1008.8 |
| 20260508202334 | 12 | 213 | 4.8 | 11.3 | 0.00 | 0.00 | 0.00 | 56 | 1008.9 |
| 20260508201833 | 12 | 196 | 4.8 | 11.3 | 0.00 | 0.00 | 0.00 | 58 | 1008.9 |
| 20260508201343 | 12 | 215 | 3.2 | 11.3 | 0.00 | 0.00 | 0.00 | 58 | 1009.0 |
| 20260508200816 | 12 | 185 | 6.4 | 16.1 | 0.00 | 0.00 | 0.00 | 59 | 1009.1 |
| 20260508200328 | 12 | 298 | 8.0 | 16.1 | 0.00 | 0.00 | 0.00 | 59 | 1009.1 |
| 20260508195822 | 12 | 205 | 6.4 | 17.7 | 0.00 | 0.00 | 0.00 | 60 | 1009.1 |
| 20260508195338 | 12 | 263 | 8.0 | 17.7 | 0.00 | 0.00 | 0.00 | 61 | 1009.2 |
| 20260508194845 | 12 | 222 | 6.4 | 16.1 | 0.00 | 0.00 | 0.00 | 60 | 1009.2 |
| 20260508194316 | 12 | 197 | 4.8 | 11.3 | 0.00 | 0.00 | 0.00 | 60 | 1009.3 |
| 20260508193830 | 12 | 207 | 4.8 | 11.3 | 0.00 | 0.00 | 0.00 | 61 | 1009.3 |
| 20260508193326 | 12 | 204 | 6.4 | 14.5 | 0.00 | 0.00 | 0.00 | 61 | 1009.5 |
| 20260508192821 | 11 | 195 | 6.4 | 14.5 | 0.00 | 0.00 | 0.00 | 61 | 1009.6 |
| 20260508192356 | 12 | 197 | 4.8 | 14.5 | 0.00 | 0.00 | 0.00 | 61 | 1009.6 |
| 20260508191825 | 12 | 194 | 3.2 | 14.5 | 0.00 | 0.00 | 0.00 | 62 | 1009.6 |
| 20260508191341 | 12 | 205 | 6.4 | 11.3 | 0.00 | 0.00 | 0.00 | 61 | 1009.7 |
| 20260508190816 | 12 | 224 | 4.8 | 14.5 | 0.00 | 0.00 | 0.00 | 61 | 1009.7 |
| 20260508190329 | 12 | 219 | 3.2 | 16.1 | 0.00 | 0.00 | 0.00 | 61 | 1009.7 |
| 20260508185819 | 11 | 110 | 3.2 | 16.1 | 0.00 | 0.00 | 0.00 | 62 | 1009.7 |
| 20260508185333 | 12 | 211 | 4.8 | 14.5 | 0.00 | 0.00 | 0.00 | 61 | 1009.8 |
| 20260508184840 | 12 | 209 | 6.4 | 14.5 | 0.00 | 0.00 | 0.00 | 61 | 1009.8 |
| 20260508184326 | 11 | 203 | 6.4 | 14.5 | 0.00 | 0.00 | 0.00 | 61 | 1009.9 |
| 20260508183823 | 11 | 225 | 8.0 | 17.7 | 0.00 | 0.00 | 0.00 | 60 | 1010.0 |
| 20260508183336 | 11 | 229 | 6.4 | 17.7 | 0.00 | 0.00 | 0.00 | 61 | 1010.1 |
| 20260508182821 | 11 | 242 | 8.0 | 12.9 | 0.00 | 0.00 | 0.00 | 61 | 1010.0 |
| 20260508182314 | 11 | 218 | 6.4 | 14.5 | 0.00 | 0.00 | 0.00 | 61 | 1010.1 |
| 20260508181827 | 11 | 194 | 6.4 | 14.5 | 0.00 | 0.00 | 0.00 | 61 | 1010.2 |
| 20260508181341 | 11 | 217 | 8.0 | 14.5 | 0.00 | 0.00 | 0.00 | 61 | 1010.3 |
| 20260508180815 | 11 | 241 | 8.0 | 16.1 | 0.00 | 0.00 | 0.00 | 62 | 1010.3 |
| 20260508180332 | 11 | 218 | 6.4 | 16.1 | 0.00 | 0.00 | 0.00 | 61 | 1010.4 |
| 20260508175825 | 11 | 242 | 6.4 | 16.1 | 0.00 | 0.00 | 0.00 | 62 | 1010.5 |
| 20260508175320 | 11 | 249 | 6.4 | 16.1 | 0.00 | 0.00 | 0.00 | 61 | 1010.5 |
| 20260508174855 | 11 | 200 | 6.4 | 12.9 | 0.00 | 0.00 | 0.00 | 61 | 1010.6 |
| 20260508174341 | 11 | 212 | 3.2 | 9.7 | 0.00 | 0.00 | 0.00 | 62 | 1010.6 |
| 20260508173829 | 11 | 215 | 3.2 | 14.5 | 0.00 | 0.00 | 0.00 | 62 | 1010.7 |
| 20260508173318 | 11 | 188 | 4.8 | 14.5 | 0.00 | 0.00 | 0.00 | 62 | 1010.7 |
| 20260508172832 | 11 | 230 | 4.8 | 11.3 | 0.00 | 0.00 | 0.00 | 62 | 1010.8 |
| 20260508172319 | 11 | 237 | 4.8 | 11.3 | 0.00 | 0.00 | 0.00 | 62 | 1010.9 |
| 20260508171832 | 11 | 197 | 4.8 | 11.3 | 0.00 | 0.00 | 0.00 | 61 | 1011.0 |
| 20260508171330 | 11 | 163 | 3.2 | 14.5 | 0.00 | 0.00 | 0.00 | 62 | 1011.1 |
| 20260508170833 | 11 | 232 | 6.4 | 14.5 | 0.00 | 0.00 | 0.00 | 62 | 1011.1 |
| 20260508170328 | 11 | 194 | 4.8 | 11.3 | 0.00 | 0.00 | 0.00 | 62 | 1011.3 |
| 20260508165836 | 11 | 209 | 6.4 | 12.9 | 0.00 | 0.00 | 0.00 | 62 | 1011.3 |
| 20260508165323 | 11 | 166 | 6.4 | 12.9 | 0.00 | 0.00 | 0.00 | 62 | 1011.3 |
| 20260508164833 | 11 | 214 | 4.8 | 14.5 | 0.00 | 0.00 | 0.00 | 63 | 1011.4 |
| 20260508164326 | 11 | 144 | 4.8 | 11.3 | 0.00 | 0.00 | 0.00 | 62 | 1011.4 |
| 20260508163826 | 11 | 234 | 4.8 | 11.3 | 0.00 | 0.00 | 0.00 | 62 | 1011.6 |
| 20260508163339 | 11 | 194 | 3.2 | 8.0 | 0.00 | 0.00 | 0.00 | 62 | 1011.5 |
| 20260508162825 | 11 | 190 | 3.2 | 8.0 | 0.00 | 0.00 | 0.00 | 63 | 1011.5 |
| 20260508162350 | 11 | 159 | 3.2 | 9.7 | 0.00 | 0.00 | 0.00 | 64 | 1011.5 |
| 20260508161826 | 10 | 219 | 3.2 | 14.5 | 0.00 | 0.00 | 0.00 | 63 | 1011.6 |
| 20260508161320 | 10 | 174 | 4.8 | 14.5 | 0.00 | 0.00 | 0.00 | 64 | 1011.6 |
| 20260508160834 | 10 | 190 | 3.2 | 9.7 | 0.00 | 0.00 | 0.00 | 64 | 1011.5 |
| 20260508160322 | 10 | 156 | 3.2 | 11.3 | 0.00 | 0.00 | 0.00 | 64 | 1011.4 |
| 20260508155839 | 10 | 201 | 4.8 | 11.3 | 0.00 | 0.00 | 0.00 | 64 | 1011.6 |
| 20260508155342 | 10 | 195 | 3.2 | 14.5 | 0.00 | 0.00 | 0.00 | 64 | 1011.4 |
| 20260508154855 | 10 | 248 | 4.8 | 12.9 | 0.00 | 0.00 | 0.00 | 64 | 1011.6 |
| 20260508154322 | 10 | 197 | 6.4 | 12.9 | 0.00 | 0.00 | 0.00 | 64 | 1011.7 |
| 20260508153818 | 10 | 187 | 6.4 | 14.5 | 0.00 | 0.00 | 0.00 | 64 | 1011.6 |
| 20260508153353 | 10 | 145 | 4.8 | 14.5 | 0.00 | 0.00 | 0.00 | 64 | 1011.7 |
| 20260508152828 | 9 | 243 | 3.2 | 11.3 | 0.00 | 0.00 | 0.00 | 64 | 1011.8 |
| 20260508152323 | 9 | 196 | 4.8 | 11.3 | 0.00 | 0.00 | 0.00 | 64 | 1011.7 |
| 20260508151832 | 9 | 209 | 4.8 | 11.3 | 0.00 | 0.00 | 0.00 | 64 | 1011.8 |
| 20260508151319 | 9 | 168 | 4.8 | 11.3 | 0.00 | 0.00 | 0.00 | 64 | 1011.8 |
| 20260508150834 | 9 | 242 | 4.8 | 11.3 | 0.00 | 0.00 | 0.00 | 65 | 1011.8 |
| 20260508150328 | 9 | 259 | 3.2 | 16.1 | 0.00 | 0.00 | 0.00 | 66 | 1011.8 |
| 20260508145822 | 8 | 175 | 4.8 | 16.1 | 0.00 | 0.00 | 0.00 | 64 | 1011.7 |
| 20260508145314 | 9 | 232 | 6.4 | 14.5 | 0.00 | 0.00 | 0.00 | 63 | 1011.8 |
| 20260508144849 | 9 | 205 | 4.8 | 11.3 | 0.00 | 0.00 | 0.00 | 62 | 1011.8 |
| 20260508144326 | 9 | 210 | 4.8 | 11.3 | 0.00 | 0.00 | 0.00 | 63 | 1011.8 |
| 20260508143840 | 9 | 197 | 4.8 | 12.9 | 0.00 | 0.00 | 0.00 | 63 | 1011.8 |
| 20260508143335 | 9 | 209 | 8.0 | 12.9 | 0.00 | 0.00 | 0.00 | 62 | 1011.7 |
| 20260508142825 | 9 | 202 | 4.8 | 14.5 | 0.00 | 0.00 | 0.00 | 62 | 1011.8 |
| 20260508142350 | 9 | 185 | 6.4 | 14.5 | 0.00 | 0.00 | 0.00 | 62 | 1011.7 |
| 20260508141826 | 9 | 194 | 3.2 | 12.9 | 0.00 | 0.00 | 0.00 | 62 | 1011.7 |
| 20260508141339 | 8 | 213 | 3.2 | 12.9 | 0.00 | 0.00 | 0.00 | 62 | 1011.7 |
| 20260508140834 | 8 | 196 | 6.4 | 11.3 | 0.00 | 0.00 | 0.00 | 61 | 1011.7 |
| 20260508140328 | 8 | 221 | 4.8 | 9.7 | 0.00 | 0.00 | 0.00 | 61 | 1011.7 |
| 20260508135822 | 8 | 197 | 4.8 | 9.7 | 0.00 | 0.00 | 0.00 | 61 | 1011.7 |
| 20260508135355 | 8 | 264 | 4.8 | 9.7 | 0.00 | 0.00 | 0.00 | 61 | 1011.8 |
| 20260508134819 | 8 | 213 | 3.2 | 11.3 | 0.00 | 0.00 | 0.00 | 61 | 1011.8 |
| 20260508134335 | 8 | 239 | 4.8 | 14.5 | 0.00 | 0.00 | 0.00 | 61 | 1011.7 |
| 20260508133819 | 8 | 160 | 4.8 | 14.5 | 0.00 | 0.00 | 0.00 | 61 | 1011.7 |
| 20260508133326 | 8 | 218 | 4.8 | 11.3 | 0.00 | 0.00 | 0.00 | 61 | 1011.7 |
| 20260508132842 | 8 | 197 | 1.6 | 9.7 | 0.00 | 0.00 | 0.00 | 62 | 1011.7 |
| 20260508132328 | 8 | 206 | 4.8 | 11.3 | 0.00 | 0.00 | 0.00 | 62 | 1011.8 |
| 20260508131824 | 8 | 216 | 3.2 | 11.3 | 0.00 | 0.00 | 0.00 | 62 | 1011.8 |
| 20260508131340 | 8 | 201 | 4.8 | 9.7 | 0.00 | 0.00 | 0.00 | 62 | 1011.8 |
| 20260508130826 | 8 | 219 | 4.8 | 9.7 | 0.00 | 0.00 | 0.00 | 62 | 1011.7 |
| 20260508130319 | 8 | 207 | 4.8 | 9.7 | 0.00 | 0.00 | 0.00 | 62 | 1011.8 |
| 20260508125834 | 8 | 211 | 4.8 | 8.0 | 0.00 | 0.00 | 0.00 | 63 | 1011.8 |
| 20260508125339 | 8 | 202 | 4.8 | 8.0 | 0.00 | 0.00 | 0.00 | 63 | 1011.8 |
| 20260508124826 | 7 | 190 | 1.6 | 9.7 | 0.00 | 0.00 | 0.00 | 63 | 1011.9 |
| 20260508124341 | 7 | 148 | 3.2 | 9.7 | 0.00 | 0.00 | 0.00 | 65 | 1011.9 |